{"data":{"norad_id":67765,"intl_designator":"2026-030B","name":"KUIPER-00160","alt_names":[],"object_type":"PAYLOAD","status":"ACTIVE","operator":null,"country":"US","launch_date":"2026-02-12","launch_site_code":"FRGUI","launch_vehicle":null,"mission":null,"orbit_class":"UNKNOWN","rcs_meters":null,"size_class":null,"mass_kg":null,"dimensions":null,"purposes":[],"wikipedia_slug":null,"has_3d_model":false,"image_url":null,"decayed_at":null,"tle_current":{"epoch":"2026-05-24T21:51:43.075872Z","epoch_age_seconds":82177,"freshness":"FRESH","line1":"1 67765U 26030B   26144.91091523  .00022501  00000+0  60262-3 0  9997","line2":"2 67765  51.8807 210.9769 0005976 334.1117  25.9571 15.37913070 16814","mean_motion":15.3791307,"eccentricity":0.0005976,"inclination_deg":51.8807,"raan_deg":210.9769,"arg_perigee_deg":334.1117,"mean_anomaly_deg":25.9571,"bstar":0.00060262,"rev_number":1681,"period_min":93.633380721577,"perigee_km":448.19967926384,"apogee_km":456.36339549972,"semimajor_km":6830.4185373818,"source":"CELESTRAK","updated_at":"2026-05-25T13:38:07.253875Z"}}}